When you browse on this site, cookies collect data to enhance your experience and personalize the content and advertising you see.
Visit our Privacy Policy to learn more. By continuing to use the site, you agree to this use of cookies and data.
  • en France
  • Liste des pays
  • À 7 jours
  • Température de l'eau
  • Carte satellitaire
  • Carte météo
  • Widgets météo
  • user-avatar
    Se connecter

    Météo par heure à Hobart

    Ce jour, 17 Juin, Lundi

    Heure Température Précipitation Vent Pression Humidité
    00:00 +5°C° 0 mm 2 m/s 751 mmHg 90%
    01:00 +4°C° 0 mm 2 m/s 751 mmHg 90%
    02:00 +4°C° 0 mm 2 m/s 750 mmHg 89%
    03:00 +4°C° 0 mm 2 m/s 750 mmHg 88%
    04:00 +3°C° 0 mm 3 m/s 750 mmHg 87%
    05:00 +4°C° 0 mm 2 m/s 750 mmHg 88%
    06:00 +5°C° 0 mm 2 m/s 750 mmHg 90%
    07:00 +5°C° 0 mm 2 m/s 750 mmHg 91%
    08:00 +6°C° 0 mm 2 m/s 750 mmHg 87%
    09:00 +7°C° 0 mm 2 m/s 750 mmHg 82%
    10:00 +9°C° 0 mm 3 m/s 750 mmHg 74%
    11:00 +10°C° 0 mm 2 m/s 750 mmHg 71%
    12:00 +13°C° 0 mm 2 m/s 749 mmHg 67%
    13:00 +14°C° 0 mm 2 m/s 749 mmHg 63%
    14:00 +14°C° 0 mm 2 m/s 749 mmHg 67%
    15:00 +13°C° 0 mm 2 m/s 748 mmHg 71%
    16:00 +12°C° 0 mm 1 m/s 748 mmHg 76%
    17:00 +10°C° 0 mm 2 m/s 748 mmHg 80%
    18:00 +9°C° 0 mm 2 m/s 748 mmHg 84%
    19:00 +8°C° 0 mm 3 m/s 748 mmHg 87%
    20:00 +8°C° 0 mm 3 m/s 748 mmHg 87%
    21:00 +8°C° 0 mm 3 m/s 748 mmHg 87%
    22:00 +8°C° 0 mm 3 m/s 747 mmHg 87%
    23:00 +7°C° 0 mm 3 m/s 747 mmHg 85%

    Demain, 18 Juin, Mardi

    Heure Température Précipitation Vent Pression Humidité
    00:00 +7°C° 0 mm 3 m/s 747 mmHg 84%
    01:00 +7°C° 0 mm 3 m/s 746 mmHg 82%
    02:00 +7°C° 0 mm 3 m/s 746 mmHg 82%
    03:00 +8°C° 0 mm 3 m/s 745 mmHg 81%
    04:00 +8°C° 0 mm 3 m/s 745 mmHg 80%
    05:00 +8°C° 0 mm 3 m/s 744 mmHg 80%
    06:00 +8°C° 0 mm 3 m/s 744 mmHg 79%
    07:00 +8°C° 0 mm 3 m/s 743 mmHg 79%
    08:00 +9°C° 0 mm 3 m/s 743 mmHg 76%
    09:00 +10°C° 0 mm 4 m/s 743 mmHg 73%
    10:00 +11°C° 0 mm 4 m/s 743 mmHg 70%
    11:00 +11°C° 0 mm 4 m/s 743 mmHg 69%
    12:00 +11°C° 0 mm 3 m/s 743 mmHg 68%
    13:00 +12°C° 0 mm 3 m/s 742 mmHg 67%
    14:00 +10°C° 0.6 mm 4 m/s 743 mmHg 74%
    15:00 +8°C° 0.6 mm 5 m/s 743 mmHg 82%
    16:00 +7°C° 0.6 mm 5 m/s 743 mmHg 89%
    17:00 +7°C° 0.4 mm 5 m/s 744 mmHg 89%
    18:00 +6°C° 0.4 mm 5 m/s 745 mmHg 89%
    19:00 +6°C° 0.4 mm 5 m/s 745 mmHg 89%
    20:00 +6°C° 0.1 mm 5 m/s 746 mmHg 88%
    21:00 +5°C° 0.1 mm 5 m/s 746 mmHg 88%
    22:00 +5°C° 0.1 mm 5 m/s 747 mmHg 88%
    23:00 +5°C° 0.2 mm 5 m/s 747 mmHg 88%

    Après-demain, 19 Juin, Mercredi

    Heure Température Précipitation Vent Pression Humidité
    00:00 +5°C° 0.2 mm 5 m/s 748 mmHg 87%
    01:00 +5°C° 0.2 mm 5 m/s 748 mmHg 87%
    02:00 +3°C° 0.1 mm 5 m/s 749 mmHg 88%
    03:00 +4°C° 0.1 mm 4 m/s 749 mmHg 88%
    04:00 +3°C° 0.1 mm 4 m/s 749 mmHg 89%
    05:00 +3°C° 0 mm 4 m/s 750 mmHg 89%
    06:00 +1°C° 0 mm 4 m/s 750 mmHg 89%
    07:00 +1°C° 0 mm 4 m/s 751 mmHg 89%
    08:00 +3°C° 0 mm 4 m/s 751 mmHg 87%
    09:00 +4°C° 0 mm 4 m/s 752 mmHg 84%
    10:00 +5°C° 0 mm 4 m/s 752 mmHg 82%
    11:00 +6°C° 0.1 mm 4 m/s 752 mmHg 77%
    12:00 +6°C° 0.1 mm 4 m/s 752 mmHg 73%
    13:00 +7°C° 0.1 mm 5 m/s 752 mmHg 69%
    14:00 +7°C° 0.1 mm 4 m/s 752 mmHg 71%
    15:00 +6°C° 0.1 mm 4 m/s 752 mmHg 73%
    16:00 +7°C° 0.1 mm 3 m/s 752 mmHg 75%
    17:00 +5°C° 0 mm 3 m/s 753 mmHg 79%
    18:00 +4°C° 0 mm 3 m/s 753 mmHg 82%
    19:00 +3°C° 0 mm 3 m/s 754 mmHg 86%
    20:00 +3°C° 0 mm 3 m/s 754 mmHg 87%
    21:00 +3°C° 0 mm 2 m/s 754 mmHg 88%
    22:00 +3°C° 0 mm 2 m/s 754 mmHg 89%
    23:00 +3°C° 0 mm 2 m/s 754 mmHg 89%

    20 Juin, Jeudi

    Heure Température Précipitation Vent Pression Humidité
    00:00 +3°C° 0 mm 2 m/s 754 mmHg 90%
    01:00 +3°C° 0 mm 2 m/s 754 mmHg 90%
    02:00 +2°C° 0.1 mm 2 m/s 754 mmHg 90%
    03:00 +2°C° 0.1 mm 2 m/s 754 mmHg 90%
    04:00 +2°C° 0.1 mm 2 m/s 754 mmHg 90%
    05:00 +2°C° 0 mm 2 m/s 754 mmHg 91%
    06:00 +2°C° 0 mm 2 m/s 754 mmHg 92%
    07:00 +2°C° 0 mm 2 m/s 754 mmHg 94%
    08:00 +3°C° 0 mm 2 m/s 754 mmHg 89%
    09:00 +4°C° 0 mm 2 m/s 754 mmHg 84%
    10:00 +5°C° 0 mm 2 m/s 754 mmHg 80%
    11:00 +6°C° 0 mm 2 m/s 754 mmHg 76%
    12:00 +7°C° 0 mm 2 m/s 754 mmHg 73%
    13:00 +8°C° 0 mm 2 m/s 754 mmHg 69%
    14:00 +8°C° 0 mm 2 m/s 753 mmHg 72%
    15:00 +7°C° 0 mm 2 m/s 753 mmHg 75%
    16:00 +7°C° 0 mm 2 m/s 753 mmHg 78%
    17:00 +5°C° 0 mm 2 m/s 753 mmHg 82%
    18:00 +4°C° 0 mm 2 m/s 754 mmHg 87%
    19:00 +3°C° 0 mm 2 m/s 754 mmHg 92%
    20:00 +3°C° 0 mm 2 m/s 754 mmHg 92%
    21:00 +3°C° 0 mm 2 m/s 754 mmHg 92%
    22:00 +2°C° 0 mm 2 m/s 754 mmHg 93%
    23:00 +3°C° 0 mm 2 m/s 754 mmHg 92%

    21 Juin, Vendredi

    Heure Température Précipitation Vent Pression Humidité
    00:00 +3°C° 0 mm 2 m/s 754 mmHg 91%
    01:00 +3°C° 0 mm 2 m/s 754 mmHg 91%
    02:00 +3°C° 0 mm 2 m/s 754 mmHg 91%
    03:00 +3°C° 0 mm 2 m/s 754 mmHg 92%
    04:00 +2°C° 0 mm 2 m/s 754 mmHg 93%
    05:00 +2°C° 0 mm 2 m/s 754 mmHg 93%
    06:00 +2°C° 0 mm 2 m/s 755 mmHg 93%
    07:00 +2°C° 0 mm 2 m/s 755 mmHg 93%
    08:00 +4°C° 0 mm 2 m/s 755 mmHg 88%
    09:00 +5°C° 0 mm 2 m/s 755 mmHg 83%
    10:00 +6°C° 0 mm 2 m/s 756 mmHg 78%
    11:00 +8°C° 0 mm 3 m/s 756 mmHg 72%
    12:00 +9°C° 0 mm 3 m/s 756 mmHg 65%
    13:00 +10°C° 0 mm 3 m/s 756 mmHg 59%
    14:00 +9°C° 0 mm 3 m/s 756 mmHg 62%
    15:00 +9°C° 0 mm 3 m/s 756 mmHg 65%
    16:00 +8°C° 0 mm 3 m/s 756 mmHg 68%
    17:00 +7°C° 0 mm 3 m/s 757 mmHg 74%
    18:00 +5°C° 0 mm 3 m/s 757 mmHg 80%
    19:00 +4°C° 0 mm 3 m/s 758 mmHg 85%
    20:00 +4°C° 0.1 mm 3 m/s 758 mmHg 86%
    21:00 +5°C° 0.1 mm 2 m/s 758 mmHg 87%
    22:00 +5°C° 0.1 mm 2 m/s 758 mmHg 88%
    23:00 +5°C° 0.1 mm 2 m/s 758 mmHg 89%

    22 Juin, Samedi

    Heure Température Précipitation Vent Pression Humidité
    00:00 +5°C° 0.1 mm 2 m/s 759 mmHg 89%
    01:00 +5°C° 0.1 mm 2 m/s 759 mmHg 89%
    02:00 +5°C° 0.1 mm 2 m/s 759 mmHg 89%
    03:00 +5°C° 0.1 mm 2 m/s 759 mmHg 90%
    04:00 +5°C° 0.1 mm 2 m/s 759 mmHg 90%
    05:00 +4°C° 0 mm 2 m/s 759 mmHg 90%
    06:00 +4°C° 0 mm 2 m/s 760 mmHg 90%
    07:00 +4°C° 0 mm 2 m/s 760 mmHg 90%
    08:00 +5°C° 0 mm 2 m/s 760 mmHg 85%
    09:00 +7°C° 0 mm 1 m/s 760 mmHg 81%
    10:00 +8°C° 0 mm 1 m/s 761 mmHg 77%
    11:00 +8°C° 0 mm 1 m/s 761 mmHg 71%
    12:00 +9°C° 0 mm 1 m/s 761 mmHg 66%
    13:00 +10°C° 0 mm 1 m/s 761 mmHg 60%
    14:00 +10°C° 0 mm 1 m/s 761 mmHg 64%
    15:00 +9°C° 0 mm 1 m/s 761 mmHg 68%
    16:00 +7°C° 0 mm 2 m/s 761 mmHg 72%
    17:00 +8°C° 0 mm 1 m/s 761 mmHg 76%
    18:00 +7°C° 0 mm 1 m/s 762 mmHg 79%
    19:00 +6°C° 0 mm 1 m/s 762 mmHg 83%
    20:00 +6°C° 0 mm 1 m/s 762 mmHg 82%
    21:00 +6°C° 0 mm 1 m/s 762 mmHg 82%
    22:00 +6°C° 0 mm 1 m/s 762 mmHg 82%
    23:00 +5°C° 0 mm 1 m/s 762 mmHg 83%
    Voir plus